Location: Helsinki
(60.1699°N, 24.9384°E)
Time: 15:57:22
(UTC+02:00)

Altair - Visible Passes

Search period start: 30 October 2020 00:00
Search period end: 09 November 2020 00:00
Orbit: 1502 x 1682 km, 47.2° (Epoch: 29 October)

Date Brightness Start Highest point End Pass type
(mag) Time Alt. Az. Time Alt. Az. Time Alt. Az.
30 Oct 9.1 05:09:55 10° SSW 05:17:04 26° SSE 05:24:23 10° E visible
31 Oct 9.1 04:45:07 10° SSW 04:52:04 24° SSE 04:59:10 10° E visible
31 Oct 8.7 06:46:28 10° SW 06:54:44 37° S 07:03:15 10° ESE visible
01 Nov 9.1 04:20:20 10° SSW 04:27:04 23° SE 04:33:57 10° E visible
01 Nov 8.7 06:21:28 10° SW 06:29:40 36° SSE 06:38:08 10° ESE visible
02 Nov 9.0 03:56:32 13° S 04:02:05 22° SE 04:08:43 10° E visible
02 Nov 8.6 05:56:29 10° SW 06:04:37 36° SSE 06:13:00 10° ESE visible
03 Nov 9.0 03:33:04 15° S 03:37:06 21° SE 03:43:28 10° E visible
03 Nov 8.6 05:31:31 10° SW 05:39:35 35° SSE 05:47:52 10° ESE visible
04 Nov 9.0 03:09:32 17° SSE 03:12:08 19° SE 03:18:12 10° E visible
04 Nov 8.5 05:07:34 13° SW 05:14:32 34° SSE 05:22:45 10° ESE visible
05 Nov 9.0 02:45:58 18° SSE 02:47:09 18° SE 02:52:54 10° E visible
05 Nov 8.5 04:44:00 18° SSW 04:49:30 33° SSE 04:57:36 10° ESE visible
05 Nov 8.5 06:44:12 10° WSW 06:52:28 37° S 07:00:59 10° SE visible
06 Nov 9.1 02:22:21 17° SE 02:22:21 17° SE 02:27:35 10° E visible
06 Nov 8.5 04:20:22 23° SSW 04:24:28 32° SSE 04:32:28 10° ESE visible
06 Nov 8.4 06:19:09 10° WSW 06:27:24 37° S 06:35:55 10° ESE visible
07 Nov 9.2 01:58:41 15° SE 01:58:41 15° SE 02:02:13 10° ESE visible
07 Nov 8.4 03:56:43 27° S 03:59:26 31° SSE 04:07:19 10° ESE visible
07 Nov 8.4 05:54:45 12° WSW 06:02:20 38° S 06:10:49 10° ESE visible
08 Nov 9.3 01:35:00 13° ESE 01:35:00 13° ESE 01:36:48 10° ESE visible
08 Nov 8.4 03:33:02 29° S 03:34:25 30° SSE 03:42:11 10° E visible
08 Nov 8.3 05:31:03 17° WSW 05:37:17 38° S 05:45:44 10° ESE visible
